Regional Weather Roundup
Issued by NWS

Home | Current Version | Previous Version | Text Only | Print | Product List | Glossary Off
Versions: 1 2 3 4 5 6 7 8 9 10 11 12 13 14 15 16 17 18 19 20 21 22 23 24 25 26 27 28 29 30 31 32 33 34 35 36 37 38 39 40 41 42 43 44 45 46 47 48 49 50

000
ASUS43 KMPX 221001
RWRMN
WEATHER ROUNDUP FOR MINNESOTA
NATIONAL WEATHER SERVICE TWIN CITIES/CHANHASSEN MN
500 AM CDT THU JUN 22 2017


NOTE: "FAIR" INDICATES FEW OR NO CLOUDS BELOW 12,000 FEET WITH NO
SIGNIFICANT WEATHER AND/OR OBSTRUCTIONS TO VISIBILITY. N/A MEANS
CURRENT SKY AND/OR WEATHER CONDITIONS ARE NOT AVAILABLE.

MNZ060>063-068>070-221100-
   Twin Cities Metro

CITY           SKY/WX    TMP DP  RH WIND       PRES   REMARKS
TWIN CITIES    MOCLDY    68  62  81 N3        29.66R
ST PAUL        CLEAR     66  64  93 CALM      29.67R
CRYSTAL        CLOUDY    65  60  84 CALM      29.66R
BLAINE         CLOUDY    66  64  94 CALM      29.67R
LAKEVILLE      CLEAR     64  64 100 CALM      29.67R
EDEN PRAIRIE   CLEAR     68  63  84 NW5       29.66R
SOUTH ST PAUL  CLEAR     67  63  85 CALM      29.66R
LAKE ELMO      FAIR      63  63 100 CALM      29.68R
$$
MNZ001>005-007-008-013>017-022>024-027-028-221100-
   Northwest Minnesota

CITY           SKY/WX    TMP DP  RH WIND       PRES   REMARKS
BEMIDJI        CLEAR     53  50  88 W5        29.71R
HALLOCK        CLEAR     54  45  71 W7        29.65S
ROSEAU         CLEAR     54  46  76 W3        29.65R
WARROAD        CLEAR     54  50  87 SW7       29.64R
CROOKSTON      CLOUDY    52  48  87 SW5       29.70R
FOSSTON        CLEAR     48  46  93 CALM      29.72R
DETROIT LAKES  CLEAR     59  52  77 CALM      29.72F
MOORHEAD       CLOUDY    57  52  82 N6        29.71R
PARK RAPIDS    CLEAR     56  48  74 CALM      29.71R
MAHNOMEN       FAIR      55  50  85 CALM      29.70F
$$
MNZ006-009>011-018-025>026-221100-
   North Central Minnesota

CITY           SKY/WX    TMP DP  RH WIND       PRES   REMARKS
BAUDETTE       CLEAR     53  52  96 SW3       29.63R
FLAG ISLAND    CLEAR     57  50  77 W14       29.60R
INTL FALLS     CLEAR     55  53  93 SW7       29.64R
WASKISH        CLEAR     61  54  77 W7        29.66R
BIG FORK       FOG       54  52  94 CALM      29.68R VSB 1
LONGVILLE      CLEAR     54  52  94 CALM      29.71R
GRAND RAPIDS   CLEAR     58  57  97 NW6       29.72R
CRANE LAKE     CLEAR     55  54  94 CALM      29.64R
ORR            CLEAR     54  52  94 CALM      29.63R
COOK           CLEAR     55  54  94 SW3       29.66R
WALKER         FAIR      51  49  94 W5        29.71R
$$
MNZ012-019>021-037-221100-
   Northeast Minnesota

CITY           SKY/WX    TMP DP  RH WIND       PRES   REMARKS
DULUTH         CLEAR     50  49  96 W5        29.66R
ELY            CLEAR     55  54  94 SW6       29.64R
HIBBING        FOG       45  45 100 CALM      29.67R VSB 1/2
EVELETH        FOG       47  45  93 CALM      29.68R VSB 1/4
DULUTH HARBOR  CLOUDY    54  50  87 CALM      29.67R
TWO HARBORS    CLEAR     54  48  82 CALM      29.63S
SILVER BAY     CLEAR     52  50  93 CALM      29.62F FOG
GRAND MARAIS     N/A     51  50  96 CALM      29.62F
G MARAIS ARPRT CLOUDY    54  50  87 CALM      29.64F
$$
MNZ029>031-032-039>041-046>048-054>057-064-221100-
   West Central Minnesota

CITY           SKY/WX    TMP DP  RH WIND       PRES   REMARKS
FERGUS FALLS   CLOUDY    63  54  72 CALM      29.70R
WHEATON        CLOUDY    63  52  67 CALM      29.73R
MORRIS         CLOUDY    66  61  82 NE3       29.70S
ALEXANDRIA     CLOUDY    66  59  78 N6        29.73R
ELBOW LAKE     FAIR      63  59  88 CALM      29.73S
WADENA         CLOUDY    55  54  94 CALM      29.72S
GLENWOOD       CLOUDY    66  63  88 N10       29.72R
APPLETON       LGT RAIN  66  63  88 CALM      29.70R
BENSON         LGT RAIN  68  66  94 NW5       29.75R
ORTONVILLE     LGT RAIN  63  57  82 NW9       29.75R
MADISON        RAIN      66  63  88 NW6       29.70F
$$
MNZ033>034-036-042>043-049>051-058-059-221100-
   Central Minnesota

CITY           SKY/WX    TMP DP  RH WIND       PRES   REMARKS
ST CLOUD       MOCLDY    67  65  93 N3        29.66F
SAUK CENTRE    FAIR      66  62  87 NW9       29.71R
PAYNESVILLE    LGT RAIN  67  67 100 W3        29.69R
AITKIN         PTCLDY    61  57  88 W3        29.68R
PINE RIVER     MOCLDY    57  54  88 CALM      29.75R
BRAINERD       CLOUDY    62  56  80 NW6       29.70R
STAPLES        CLOUDY    57  55  94 NW5       29.71F
LONG PRAIRIE   FAIR      63  59  88 NW3       29.72R
LITTLE FALLS   CLOUDY    63  61  94 CALM      29.70S
LITCHFIELD     LGT RAIN  70  66  88 SE5       29.65F
BUFFALO        CLOUDY    68  62  82 NW6       29.69R
MAPLE LAKE     LGT RAIN  68  65  90 NW5       29.68F
HUTCHINSON     CLEAR     69  65  88 CALM      29.67F
$$
MNZ037-044-045-052-053-221100-
   East Central Minnesota

CITY           SKY/WX    TMP DP  RH WIND       PRES   REMARKS
PRINCETON      CLOUDY    66  64  94 CALM      29.68R
MORA           CLOUDY    64  63  94 NW3       29.67F
CAMBRIDGE      CLOUDY    68  61  77 CALM      29.67R
RUSH CITY      PTCLDY    64  61  88 CALM      29.68R
MOOSE LAKE     PTCLDY    55  52  88 CALM      29.66R
HINCKLEY       FAIR      63  63 100 W3        29.66F
CLOQUET        CLEAR     52  48  87 CALM      29.68R
MCGREGOR       CLEAR     63  61  94 W6        29.69R
$$
MNZ071>073-080-081-089-090-097-098-221100-
   Southwest Minnesota

CITY           SKY/WX    TMP DP  RH WIND       PRES   REMARKS
MONTEVIDEO     LGT RAIN  68  64  88 NW7       29.71R
GRANITE FALLS  LGT RAIN  72  68  88 NW8       29.71R
CANBY          CLOUDY    64  59  84 NW7       29.74F
MARSHALL       TSTM      65  62  90 VRB5      29.71R
REDWOOD FALLS  CLOUDY    70  65  84 N6        29.67S
OLIVIA         CLOUDY    70  64  83 NE3       29.68R
PIPESTONE      PTCLDY    70  57  64 N15G24    29.68F
WINDOM         CLEAR     66  64  94 NW10      29.66R
WORTHINGTON    MOCLDY    67  66  97 NW15      29.68R FOG
JACKSON        CLEAR     68  63  83 CALM      29.65R
TRACY          CLOUDY    70  68  95 NW17G24   29.72R
SLAYTON        HVY RAIN  69  63  82 NW13      29.69R
$$
MNZ065>067-074>077-082>085-091>093-221100-
   South Central Minnesota

CITY           SKY/WX    TMP DP  RH WIND       PRES   REMARKS
MANKATO        PTCLDY    67  66  97 CALM      29.65R
NEW ULM        CLOUDY    66  64  94 NE6       29.65R
ST JAMES       CLEAR     66  66 100 NE5       29.65R
FAIRMONT       PTCLDY    69  64  84 S6        29.66R
GLENCOE        CLOUDY    66  65  96 N6        29.68R
FARIBAULT      CLOUDY    68  66  94 SE3       29.67R
OWATONNA       CLOUDY    68  64  88 CALM      29.66R
WASECA         CLOUDY    64  63  94 NE3       29.67R
ALBERT LEA     CLOUDY    73  64  73 S9        29.64F
$$
MNZ078>079-086>088-094>096-221100-
   Southeast Minnesota

CITY           SKY/WX    TMP DP  RH WIND       PRES   REMARKS
ROCHESTER      CLOUDY    70  65  84 S10       29.68F
RED WING       CLOUDY    70  64  83 CALM      29.66R
STANTON        CLOUDY    68  64  88 CALM      29.65R
DODGE CENTER   CLOUDY    68  63  83 S5        29.67S
WINONA         CLOUDY    70  66  88 SE5       29.67F
AUSTIN         CLOUDY    72  64  78 S9        29.67R
PRESTON        CLOUDY    69  64  84 S15       29.71F
$$
ABBREVIATIONS USED IN REMARKS
   TC - TEMPERATURES IN CELSIUS
  WCI - WIND CHILL INDEX
   HX - HEAT INDEX
  VSB - VISIBILITY
$$



USA.gov is the U.S. government's official web portal to all federal, state and local government web resources and services.